Dewpoint
32 31 31 32 32 31 33 31 32 32 32 32 32 33 34 31 31 32 33 34 29 26 26 26 29 29 30 30 28 32 31 30 27 24 23 22 20 22 22 23 22 21 21 20 22 18 13 21 19 16 19 22 22 22
32 32 32 32 30 32 32 31 30 31 31 31 32 33 33 31 31 29 31 33 36 32 28 31 32 34 33 32 28 33 32 32 32 29 28 23 20 22 23 20 24 22 26 24 21 20 16 14 16 18 18 17 15 14
31 29 30 32 32 32 32 30 29 31 31 32 33 32 29 30 30 29 32 33 32 30 28 30 29 34 35 34 34 28 32 35 34 35 30 28 22 22 19 20 23 21 23 20 20 14 13 13 14 16 14 11 11 11
30 32 32 32 32 32 32 31 32 32 32 33 32 29 30 31 31 29 32 33 32 30 23 22 34 31 35 35 34 36 35 36 36 36 32 32 28 29 22 20 20 23 24 17 15 16 12 11 12 8 7 7 6 5
31 32 31 31 32 32 32 30 31 31 30 29 29 30 31 32 31 32 35 33 34 29 24 24 30 32 34 34 35 37 36 35 33 31 29 25 28 27 27 28 25 26 23 23 22 16 15 10 7 5 5 5 6 7
31 31 31 31 32 33 32 30 31 30 31 30 30 31 32 31 31 31 26 32 33 32 27 22 29 29 31 33 32 31 31 31 30 28 26 27 30 29 24 21 23 27 28 24 21 23 11 8 8 7 7 8 9 9
32 32 32 32 32 32 33 29 31 31 30 30 32 32 32 32 33 28 26 32 34 31 27 22 23 29 30 31 30 30 31 29 29 27 25 25 25 27 23 19 25 27 28 29 26 24 24 24 18 9 10 12 12 10
31 32 33 31 32 33 31 32 32 30 31 32 31 31 31 34 35 32 34 36 33 29 29 21 21 25 30 26 24 30 27 28 26 26 26 24 25 25 18 21 23 26 27 27 29 27 22 12 12 12 10 10 9 8
30 31 30 32 33 32 30 30 31 32 31 31 30 31 32 31 29 31 36 36 32 29 22 21 19 18 28 26 27 26 28 20 25 21 21 24 19 15 19 17 20 24 23 24 19 13 10 9 9 9 9 10 10 10
32 33 33 33 31 30 31 31 31 33 32 30 28 25 22 28 34 36 30 27 27 27 26 20 23 19 23 23 21 22 23 20 16 18 23 19 17 22 20 14 11 13 12 14 9 8 8 7 8 8 9 11 12 12
34 34 33 31 31 31 31 32 33 34 30 27 24 23 29 34 31 26 21 20 22 19 22 22 22 20 24 20 16 16 17 17 14 13 15 16 15 19 20 12 10 9 8 8 7 7 6 7 8 11 12 13 13 13
33 32 33 33 32 32 33 33 32 32 30 29 30 32 29 25 22 18 16 18 18 15 20 20 19 21 17 19 11 13 7 12 8 12 14 12 17 19 13 11 8 6 7 7 8 9 10 12 13 13 13 13 14 15
33 33 33 32 31 31 31 31 32 30 27 23 20 19 16 15 10 11 9 12 13 18 20 21 18 18 18 14 11 10 3 6 11 8 11 13 13 14 14 9 9 10 11 11 12 13 15 15 16 15 16 16 16 17
32 33 32 32 32 31 32 31 31 27 20 16 15 12 13 12 14 14 14 16 19 21 19 18 16 14 14 10 10 2 8 4 -0 4 8 10 11 11 8 9 9 10 12 13 14 15 16 16 16 17 17 18 17 17
33 32 31 32 32 31 30 30 26 22 20 17 14 12 14 18 20 21 22 22 22 22 16 16 13 10 7 4 6 3 -2 3 4 5 9 10 10 9 9 11 13 14 15 15 16 15 16 16 16 16 18 18 18 19
32 31 31 32 32 30 28 24 20 19 18 18 18 14 17 16 17 20 20 19 21 21 17 12 7 2 4 4 0 -1 2 4 9 11 11 10 12 14 15 16 16 16 16 16 16 16 17 16 16 16 16 18 18 19
30 28 32 32 32 29 25 18 16 16 17 17 16 20 18 19 18 19 20 19 21 19 12 10 4 3 6 7 8 10 9 11 12 12 14 14 16 17 16 16 16 16 16 16 16 15 14 15 16 16 16 17 18 17
30 32 32 32 29 24 20 15 13 12 13 16 15 16 18 21 18 16 17 18 17 14 11 8 11 8 9 8 9 13 14 15 16 16 16 16 16 16 15 15 15 15 15 14 13 14 15 16 15 15 17 17 16 16
32 31 31 30 26 19 17 17 14 12 13 14 16 17 18 17 15 14 14 15 19 16 15 12 10 10 11 13 13 14 14 15 14 15 14 13 13 12 13 14 14 13 13 13 13 15 15 15 15 16 16 16 16 15
31 31 27 27 22 16 14 15 14 13 13 14 14 13 17 15 14 13 12 12 13 15 12 10 9 10 12 13 15 16 16 15 15 13 11 11 11 13 13 13 13 13 12 12 12 15 15 14 14 15 16 17 15 14
27 26 23 20 14 13 11 11 13 12 14 12 9 10 13 12 12 11 11 12 9 10 10 13 12 11 9 10 11 12 14 14 14 14 14 9 11 12 12 13 13 11 11 12 12 12 13 13 14 15 15 15 15 16
24 23 13 13 13 12 11 8 11 9 11 10 9 7 10 10 10 11 13 9 9 9 12 14 13 10 8 9 9 10 10 12 11 12 12 12 11 11 11 12 12 11 12 13 14 14 13 14 15 15 15 15 16 15
20 15 10 9 8 9 9 5 11 7 10 10 7 9 10 11 10 9 10 11 11 13 13 13 13 10 9 9 9 9 9 9 10 10 10 11 11 11 11 11 11 12 12 13 14 14 14 15 14 15 15 15 15 15
13 10 9 9 8 8 6 7 5 6 6 7 8 9 9 9 7 8 7 9 11 12 10 10 10 9 9 9 8 8 9 8 8 9 9 9 9 9 9 10 10 11 12 14 13 13 14 14 15 15 14 14 15 15
11 11 9 10 7 9 8 7 7 8 9 5 8 9 9 7 7 6 6 7 9 8 8 7 7 8 8 8 8 8 9 8 7 7 8 8 9 9 9 9 9 10 14 13 12 12 13 14 15 15 15 15 15 16
10 11 11 10 10 9 8 8 7 7 6 8 7 8 7 6 4 4 6 6 7 7 6 6 7 5 7 8 8 8 8 8 7 7 8 8 9 9 9 9 9 10 12 14 14 13 14 14 15 15 15 16 17 17
9 10 12 13 13 10 8 6 5 5 6 7 5 3 4 5 4 5 8 7 6 7 7 6 6 5 5 6 7 7 7 7 7 7 8 8 9 9 10 9 9 11 14 16 16 15 15 15 15 15 16 16 17 17
11 10 10 9 8 7 8 6 6 5 5 6 5 2 3 4 5 6 7 9 7 6 4 3 4 3 3 4 4 5 7 7 7 6 7 8 8 9 9 12 12 14 16 17 17 17 17 16 16 17 17 17 18 18
11 10 10 9 7 6 5 6 6 7 7 6 3 2 2 4 5 5 7 8 6 4 4 4 4 2 4 5 5 6 7 7 5 4 5 5 6 8 11 11 12 14 15 15 15 17 18 19 19 19 19 18 18 18
11 11 8 7 8 7 6 6 7 7 6 4 5 5 4 5 7 8 7 6 5 5 4 3 3 3 4 4 5 5 6 7 6 4 3 5 6 8 10 11 13 14 14 14 13 14 15 17 15 15 15 15 16 16
13 11 9 7 7 6 6 6 7 7 3 3 0 2 3 4 7 9 7 6 6 6 6 5 5 4 4 4 4 3 4 4 5 5 6 9 9 10 11 16 14 13 13 13 13 13 13 13 13 13 13 14 15 16
10 8 9 8 7 6 7 7 6 6 5 4 3 2 3 4 4 6 8 7 7 6 7 6 5 4 5 4 3 3 7 6 5 4 6 10 14 16 18 14 13 13 13 12 12 13 13 12 12 12 13 13 14 15
7 7 7 7 7 7 6 6 6 5 3 3 3 3 3 4 5 7 8 8 7 6 6 6 6 5 5 4 4 3 5 3 4 10 12 14 14 16 16 13 13 13 12 12 12 12 12 11 11 11 12 12 14 15
Wind_Speed
27 28 28 28 28 27 28 27 27 27 24 23 21 21 20 19 20 15 13 11 10 15 25 29 22 19 16 12 13 3 7 1 4 9 8 5 5 8 6 11 12 14 14 8 5 7 11 7 7 9 4 7 14 19
27 28 28 28 27 28 27 27 26 27 24 23 21 20 21 19 18 18 12 9 8 10 17 26 25 20 16 9 7 5 2 5 4 5 2 5 5 6 9 11 2 8 8 12 7 3 3 4 3 5 7 20 16 23
28 28 29 29 28 27 27 27 28 27 26 22 18 19 20 18 19 18 13 9 7 10 17 11 9 4 7 9 5 6 2 2 2 2 3 3 5 2 8 6 6 2 1 6 9 4 6 7 10 13 16 22 24 25
28 28 28 27 26 27 28 28 26 25 24 21 19 19 21 21 19 21 14 11 6 8 9 8 2 6 7 9 10 9 5 1 2 3 4 4 4 2 3 5 5 1 5 9 7 7 14 11 14 22 26 26 26 24
28 28 27 27 27 27 27 25 23 21 21 20 21 21 22 22 21 17 13 15 16 13 5 8 5 3 8 9 8 7 4 3 3 3 5 4 3 4 2 3 5 5 4 3 4 15 9 14 19 24 28 25 25 25
29 29 27 25 27 27 25 23 22 22 24 23 23 23 22 21 19 7 6 2 1 3 4 5 1 3 6 6 12 11 6 5 4 4 5 4 3 2 5 4 5 5 6 2 8 9 22 24 21 22 25 21 18 19
26 25 24 25 26 26 25 24 22 24 25 26 26 24 22 21 13 6 6 2 2 2 4 4 3 2 4 2 3 5 9 6 4 4 5 4 5 6 4 4 2 9 11 19 27 33 25 20 20 18 21 20 18 16
25 25 25 25 26 26 22 23 22 24 26 25 25 24 20 11 5 6 2 3 3 4 4 3 2 2 6 4 4 6 4 4 10 5 4 5 4 5 7 8 9 13 17 16 16 17 23 22 20 19 18 16 15 13
24 25 25 27 26 21 23 24 23 25 25 25 22 11 1 2 1 2 10 6 1 2 1 0 1 1 6 4 4 4 4 7 5 6 6 4 6 9 7 12 14 8 7 19 25 26 22 22 19 16 15 12 13 9
21 24 26 24 20 23 23 23 23 21 26 14 5 3 2 1 13 8 1 0 1 2 2 2 3 1 5 3 4 2 4 4 5 7 4 7 7 7 9 5 8 13 21 27 25 19 22 18 16 12 12 9 9 8
19 21 21 21 22 22 23 22 20 20 7 6 7 3 6 10 2 3 2 3 3 2 4 3 6 2 7 5 4 5 4 3 5 5 4 4 4 5 8 9 11 13 14 15 19 17 16 17 14 12 9 8 7 6
18 19 20 22 23 24 24 23 22 9 5 6 7 5 4 5 5 5 5 4 5 4 6 3 5 5 3 3 3 4 4 3 5 2 5 4 2 4 4 9 14 17 23 21 21 20 16 14 11 10 8 7 5 3
18 17 19 22 27 27 25 25 22 18 4 2 1 2 5 7 9 6 9 3 5 9 7 5 4 3 2 5 6 4 5 6 1 5 4 3 3 5 8 14 17 17 20 19 16 14 13 11 9 7 6 4 2 1
16 16 22 25 33 31 25 24 18 7 5 5 6 9 7 6 6 3 5 5 3 4 8 5 2 3 3 4 3 6 3 2 5 5 4 3 4 6 9 11 18 15 15 15 13 11 10 8 7 5 4 2 1 2
23 17 19 25 35 32 24 20 13 6 6 7 7 7 6 8 6 7 6 3 8 5 3 0 2 3 7 6 5 5 4 6 6 4 5 7 8 11 13 13 14 12 11 11 9 8 7 5 4 4 4 3 2 2
24 14 10 34 34 28 23 8 8 4 5 6 8 6 12 8 14 14 14 12 8 8 1 2 3 5 8 4 6 6 4 5 5 5 8 9 12 12 13 13 12 10 10 8 7 6 5 4 4 3 3 2 2 2
13 6 25 31 31 17 18 5 7 8 6 6 6 6 10 4 8 12 12 15 14 3 4 4 7 5 2 6 5 6 5 9 11 11 9 10 13 12 11 11 10 8 8 7 5 5 4 4 3 3 4 4 4 5
6 17 22 28 22 7 5 9 6 7 7 5 6 14 9 9 15 12 14 14 10 5 4 5 4 11 7 6 7 6 8 10 11 12 11 11 11 11 10 11 9 8 7 7 6 5 4 5 5 5 4 4 5 4
16 13 22 20 10 4 5 8 6 5 4 4 8 11 5 8 14 14 14 15 5 3 6 6 10 9 9 8 9 6 4 6 10 9 11 11 11 11 10 9 8 7 6 5 6 5 4 4 4 4 5 5 5 5
12 10 23 14 9 4 5 5 4 5 6 6 6 11 6 7 12 15 24 23 14 8 15 10 9 7 6 8 7 6 5 7 11 12 10 9 8 8 9 7 7 7 6 6 5 5 4 4 4 5 5 6 6 7
11 10 13 9 6 10 6 6 5 3 4 4 8 6 5 6 16 17 16 16 14 9 10 11 11 11 11 10 9 9 12 11 9 5 4 5 6 7 7 8 7 7 6 6 5 6 6 6 7 6 7 7 7 7
5 12 6 8 6 5 6 5 2 4 2 3 5 6 7 8 10 11 7 14 8 8 7 9 10 9 11 14 12 12 9 10 11 11 12 7 7 8 9 8 7 7 6 4 5 7 8 8 8 7 7 8 8 7
8 6 5 10 4 8 3 5 3 8 4 6 4 4 5 5 7 6 7 6 5 8 10 7 6 9 10 9 12 15 14 10 11 10 8 6 5 5 6 7 6 6 7 6 7 8 9 10 8 8 8 7 7 7
7 6 7 6 8 4 5 7 4 4 4 5 4 4 5 6 8 6 5 4 5 9 12 13 10 4 5 8 14 13 12 9 5 6 8 8 8 7 6 7 7 6 5 7 9 9 9 8 9 8 7 7 7 6
4 8 6 7 5 6 7 6 7 6 5 5 3 4 4 5 5 5 3 4 5 9 9 9 8 9 9 7 7 8 8 10 7 4 3 5 4 7 11 10 9 8 6 10 11 11 10 9 9 8 8 7 8 8
6 6 5 6 6 5 4 3 4 5 4 3 4 3 3 4 4 3 2 5 4 6 9 9 8 8 8 8 8 12 12 10 6 2 3 5 5 6 9 12 13 10 9 12 12 12 12 11 10 10 9 8 9 7
4 4 4 4 2 1 2 3 2 3 3 4 4 4 3 4 3 2 1 3 3 4 7 6 4 4 5 6 6 8 9 8 4 5 7 5 4 4 5 10 13 13 15 14 13 12 12 12 11 10 10 9 7 6
2 2 3 6 3 4 2 3 3 3 2 3 1 4 2 2 2 1 2 3 6 6 6 2 2 5 4 3 4 8 11 15 10 5 1 4 5 7 6 9 11 18 15 13 13 11 11 11 13 13 11 10 9 6
2 3 0 3 2 4 4 3 2 2 3 1 2 2 2 2 1 2 3 6 6 6 7 6 7 9 5 2 2 2 4 11 13 12 13 10 10 8 14 14 15 13 13 13 17 15 14 13 10 10 8 8 8 6
3 2 2 2 2 3 2 2 2 1 3 3 3 4 3 2 2 2 3 5 7 7 6 5 5 5 5 6 7 6 1 2 8 8 9 11 12 18 18 17 14 15 14 14 15 15 14 11 11 7 6 5 4 4
3 1 2 3 3 1 1 2 1 2 3 4 4 5 3 1 1 1 4 3 4 6 7 11 9 5 5 7 6 7 6 2 7 12 10 12 15 17 16 11 13 14 13 14 14 13 13 13 10 9 8 7 6 4
4 2 1 2 2 1 2 1 1 2 3 3 3 2 2 2 2 1 2 5 4 8 8 9 10 8 6 6 6 6 9 10 12 13 15 14 14 15 10 11 13 13 13 14 13 13 13 12 11 10 10 9 7 5
1 2 2 3 3 2 2 2 3 2 4 3 3 2 1 1 2 1 1 2 2 4 8 10 10 8 8 8 8 7 6 10 14 15 16 17 18 19 15 14 14 12 13 13 12 12 13 13 12 12 11 10 9 5
Wind_Direction
318 320 320 317 314 319 312 314 319 317 311 307 307 304 295 296 300 303 284 273 276 278 279 271 285 294 288 286 291 210 142 268 145 186 193 156 143 177 129 151 165 166 163 185 184 212 233 152 132 183 136 110 138 141
316 316 314 312 317 315 314 315 318 319 314 313 309 298 294 295 300 302 293 284 307 269 278 284 281 257 240 256 290 290 332 137 140 144 211 134 130 153 145 172 204 167 174 173 191 172 71 45 61 113 130 133 131 126
318 316 316 316 313 316 313 319 319 316 316 310 305 297 305 306 298 300 290 288 297 280 284 257 263 226 240 242 233 286 349 77 138 110 134 105 126 157 154 151 118 99 69 108 144 61 79 83 87 108 123 123 120 118
314 317 317 319 320 318 318 315 323 319 317 314 310 309 310 301 300 301 290 274 255 274 277 291 325 269 283 269 264 254 294 156 97 82 117 118 122 356 87 107 105 70 127 121 88 115 101 75 113 120 112 111 110 112
318 316 317 317 320 320 318 319 321 320 320 318 313 308 308 305 297 310 285 269 239 219 283 299 302 277 305 282 258 247 212 60 49 86 67 82 88 100 63 91 82 5 112 146 126 168 102 127 122 120 115 116 116 114
317 318 318 321 319 319 318 323 320 317 318 315 309 308 304 303 315 335 304 47 347 181 259 259 313 313 341 66 79 69 69 60 65 79 74 67 37 66 92 83 12 15 41 21 131 107 114 120 112 113 113 112 106 105
326 325 323 322 321 322 318 320 316 313 315 312 310 305 307 306 299 249 243 311 193 177 253 271 272 350 318 356 49 54 40 50 67 80 61 54 34 46 62 86 46 52 94 107 118 113 101 110 118 107 105 104 100 101
325 328 326 324 327 326 323 326 319 316 316 315 314 312 311 310 299 247 270 309 170 237 255 264 287 291 1 37 67 15 59 36 32 68 49 37 38 56 66 29 67 81 90 75 101 111 115 120 113 107 113 116 106 102
321 325 328 329 331 330 330 325 325 324 323 318 318 320 242 41 300 282 279 251 242 273 254 290 228 112 346 50 54 43 43 64 40 47 36 36 33 50 37 93 96 105 87 116 109 113 116 115 116 116 112 105 107 107
317 324 326 331 337 334 333 329 331 334 325 328 7 9 286 268 300 304 130 186 35 15 9 40 360 36 1 41 60 68 37 55 69 36 348 55 54 46 26 20 84 121 129 128 118 123 121 116 118 110 102 99 107 112
331 334 342 343 336 333 329 333 340 342 347 4 351 321 309 325 330 30 42 30 352 60 14 32 28 73 13 66 87 29 86 48 77 23 56 70 49 18 358 65 73 98 105 102 107 110 112 118 119 116 108 102 103 101
7 7 5 3 0 353 347 343 343 350 300 289 305 311 320 6 21 24 15 359 15 23 358 35 28 37 33 6 93 29 88 62 85 360 72 74 39 333 78 76 83 96 96 94 101 106 104 100 101 104 104 106 100 93
11 11 1 354 352 344 341 338 337 334 352 61 21 3 4 355 29 21 358 357 352 349 3 22 51 22 36 49 72 73 70 71 121 55 72 55 17 68 86 99 88 88 92 95 92 92 95 94 84 86 96 86 65 3
344 349 353 350 350 347 344 340 346 359 43 49 24 22 33 7 356 321 312 301 302 333 12 357 33 57 17 64 35 77 71 127 76 70 84 113 114 103 89 90 96 88 87 89 89 90 90 93 88 78 74 65 346 321
346 330 338 344 347 347 346 348 4 35 45 44 30 33 10 319 302 306 336 340 2 329 338 256 65 58 38 69 40 107 73 64 48 91 105 128 123 114 99 91 91 90 87 86 86 87 82 72 65 63 42 18 346 331
345 339 334 339 342 346 351 2 21 43 50 47 36 10 335 348 359 10 359 358 347 339 267 25 73 63 43 42 53 30 74 63 102 98 117 118 105 97 95 89 84 84 83 82 71 65 68 53 33 10 3 39 356 325
341 340 325 335 340 343 9 43 29 42 47 29 353 333 340 313 341 345 348 342 326 341 37 33 47 41 346 51 46 25 64 103 109 100 91 95 99 96 91 86 81 76 71 68 68 54 43 28 18 18 3 3 352 330
317 319 335 342 347 354 28 30 62 54 41 3 356 347 341 359 359 3 343 343 8 28 32 66 90 35 54 63 73 86 83 85 84 92 89 84 84 79 76 76 65 58 56 47 33 28 24 17 11 356 336 328 318 314
328 340 348 353 5 48 41 29 33 73 29 336 327 346 342 10 9 1 7 11 27 71 93 55 59 45 57 51 91 97 103 106 107 90 76 64 64 67 65 64 61 52 49 34 21 14 6 356 335 326 314 312 306 308
338 348 355 7 28 58 56 30 30 55 37 345 349 353 2 15 354 13 27 21 19 41 43 47 42 31 48 43 34 52 69 112 112 101 82 63 57 62 54 52 44 29 30 21 18 11 359 352 348 334 318 311 319 308
349 348 356 18 44 56 77 9 54 43 338 38 347 6 353 350 21 20 20 2 44 31 50 52 58 51 48 44 39 50 54 64 64 68 101 90 57 58 48 39 28 26 18 5 359 350 355 340 327 326 326 320 312 300
331 351 9 21 63 46 76 23 28 334 25 4 23 13 26 18 8 17 350 36 49 22 11 19 44 50 49 43 37 36 37 63 62 65 60 71 55 39 28 15 12 8 357 348 340 336 333 332 324 325 321 316 317 308
354 17 41 22 70 36 4 5 41 11 37 3 11 42 27 13 0 339 60 45 53 11 8 15 39 55 59 49 52 44 35 48 61 52 47 60 65 43 21 6 359 352 350 352 343 334 328 325 327 326 324 323 318 314
31 42 28 37 23 21 339 22 27 25 40 25 32 40 19 4 345 61 69 55 28 11 21 18 27 45 32 37 42 32 20 22 57 64 37 40 44 25 354 353 354 347 338 331 332 326 324 323 329 327 320 313 310 303
50 7 24 12 8 16 29 12 9 36 36 10 43 40 0 352 63 60 61 19 5 12 9 6 27 40 46 37 33 25 23 20 17 35 26 21 22 15 13 360 347 335 331 340 335 328 322 317 318 314 313 309 302 307
63 0 32 4 359 26 7 25 25 18 15 32 30 331 5 70 68 61 33 349 345 353 355 355 358 5 28 25 11 8 357 353 345 56 31 14 18 10 351 347 342 337 341 322 310 317 317 316 313 313 311 312 318 330
57 12 354 25 338 69 62 58 56 51 46 34 356 10 43 71 82 109 101 22 335 334 327 320 324 335 329 339 345 347 339 343 328 288 299 313 310 298 292 325 326 316 311 317 315 305 304 307 306 303 300 300 294 287
99 39 11 337 44 25 70 47 40 41 5 339 331 42 79 88 124 60 19 358 341 327 327 317 345 328 292 283 307 348 0 352 350 360 283 301 297 306 314 316 316 320 319 317 320 316 310 303 293 288 287 284 286 280
54 350 190 30 54 50 46 47 51 34 352 1 93 105 114 64 16 358 351 351 352 17 30 22 4 0 16 4 334 301 8 20 19 23 18 3 347 333 336 325 318 312 328 323 325 330 322 313 325 311 299 287 283 276
9 359 67 61 61 51 19 10 70 46 49 81 97 105 81 65 41 5 357 7 22 21 5 344 328 6 7 4 346 350 247 58 35 15 344 340 322 307 309 311 315 333 328 324 322 322 330 337 332 336 330 315 297 271
340 354 76 65 93 75 42 355 22 66 59 57 39 86 101 126 263 320 13 5 4 6 10 12 8 4 353 356 352 346 349 319 328 327 306 294 293 295 298 317 333 328 323 323 324 324 329 335 336 336 336 330 317 310
9 44 104 114 112 26 55 74 62 70 40 57 45 61 66 80 66 337 3 10 10 13 5 358 348 334 318 306 291 269 270 294 312 311 307 305 308 317 330 342 334 326 326 327 325 329 334 339 338 341 337 334 324 304
57 56 68 105 112 119 30 79 49 86 55 68 49 43 62 81 124 301 267 238 338 328 339 328 312 299 294 292 290 292 300 309 314 322 330 330 338 336 354 343 332 330 329 328 332 334 341 345 348 347 346 342 335 315